NIMIQ 6

Last updated on Sun Jun 21 2026 00:03:05 GMT+0000 (Coordinated Universal Time)

1 38342U 12026A 26171.37395705 -.00000178 00000+0 00000+0 0 9992 2 38342 0.0119 354.9173 0002676 90.0185 227.1625 1.00272093 50441
UTC large
Height (km)
Speed (km/s)
/
Latitude / Longitude
Inclination (degrees)
Orbital Period (minutes)
Azimuth
Elevation
Range (km)
Doppler Factor

Next 0 passes for location: London (51.5072 / 0.1276)

No passes found over London.
NIMIQ 6